Location: Poigny-la-Forêt
(48.6876°N, 1.7701°E)
Time: 10:23:27
(UTC+02:00)

ISS - Pass Details

Date: 23 March 2019
Orbit: 408 x 410 km, 51.6° (Epoch: 21 April)

Event Time Altitude Azimuth Distance (km) Brightness Sun altitude
Rises 20:15:38 0° 222° (SW) 2,326 0.4 -11.6°
Reaches altitude 10° 20:17:49 10° 213° (SSW) 1,468 -0.8 -11.9°
Maximum altitude 20:20:50 34° 146° (SSE) 688 -3.1 -12.4°
Enters shadow 20:22:18 23° 98° (E) 929 -2.6 -12.6°
